This is the latest recevied weather packets stored in our database for station/object N3TTT-13. If no packets are shown the sender has not sent any weather packets the latest 10 day(s).
| Time | Temp. | Humidity | Pressure | Rain* | Wind** | Luminosity | Snow |
|---|---|---|---|---|---|---|---|
| 1777725180 | 10.56° C | 76% | 1013.9 hPa | 0 mm | - | 116 W/m² | - |
| 1777724877 | 10.56° C | 77% | 1013.9 hPa | 0 mm | - | 113 W/m² | - |
| 1777724573 | 10.56° C | 77% | 1013.7 hPa | 0 mm | - | 111 W/m² | - |
| 1777724271 | 10.56° C | 77% | 1013.7 hPa | 0 mm | - | 129 W/m² | - |
| 1777723969 | 10.56° C | 78% | 1013.9 hPa | 0 mm | - | 146 W/m² | - |
| 1777723665 | 10.56° C | 79% | 1014 hPa | 0 mm | - | 102 W/m² | - |
| 1777723362 | 10.56° C | 80% | 1014 hPa | 0 mm | - | 125 W/m² | - |
| 1777723060 | 10.56° C | 80% | 1014.3 hPa | 0 mm | - | 153 W/m² | - |
| 1777722757 | 10.56° C | 81% | 1014.1 hPa | 0 mm | - | 130 W/m² | - |
| 1777722452 | 10° C | 82% | 1013.9 hPa | 0 mm | - | 130 W/m² | - |
| 1777722150 | 10° C | 83% | 1013.9 hPa | 0 mm | - | 120 W/m² | - |
| 1777721847 | 9.44° C | 84% | 1013.7 hPa | 0 mm | - | 110 W/m² | - |
| 1777721545 | 9.44° C | 86% | 1013.8 hPa | 0 mm | - | 79 W/m² | - |
| 1777721243 | 9.44° C | 87% | 1013.6 hPa | 0 mm | - | 66 W/m² | - |
| 1777720940 | 8.89° C | 89% | 1013.9 hPa | 0 mm | - | 62 W/m² | - |
| 1777720637 | 8.89° C | 89% | 1013.9 hPa | 0 mm | - | 57 W/m² | - |
| 1777720335 | 8.33° C | 90% | 1013.6 hPa | 0 mm | - | 57 W/m² | - |
| 1777720032 | 7.78° C | 90% | 1013.4 hPa | 0 mm | - | 48 W/m² | - |
| 1777719729 | 7.78° C | 90% | 1013.3 hPa | 0 mm | - | 42 W/m² | - |
| 1777719427 | 7.22° C | 90% | 1013.3 hPa | 0 mm | - | 36 W/m² | - |
| 1777719124 | 7.22° C | 90% | 1013.2 hPa | 0 mm | - | 34 W/m² | - |
| 1777718821 | 7.22° C | 90% | 1013.2 hPa | 0 mm | - | 26 W/m² | - |
| 1777718519 | 7.22° C | 90% | 1013.3 hPa | 0 mm | - | 19 W/m² | - |
| 1777718216 | 7.22° C | 90% | 1013.2 hPa | 0 mm | - | 16 W/m² | - |
| 1777717914 | 7.22° C | 90% | 1013.2 hPa | 0 mm | - | 14 W/m² | - |
* Rain latest hour (hover to see other rain measurements)
** Current wind speed in m/s (hover to see current wind gust speed)